Temp
-7 -7 -7 -7 -6 -7 -6 -6 -6 -5 -6 -6 -6 -6 -6 -6 -5 -5 -5 -5 -6 -6 -6 -5 -5 -5 -5 -5 -5 -5 -5 -5 -5 -5 -5 -5 -5 -5 -5 -6 -6 -6 -6
-7 -7 -7 -7 -7 -7 -7 -6 -6 -6 -6 -6 -6 -6 -6 -6 -6 -5 -5 -6 -6 -6 -6 -5 -5 -5 -5 -5 -5 -5 -5 -5 -5 -5 -5 -5 -5 -6 -6 -6 -6 -6 -6
-8 -7 -7 -7 -7 -7 -7 -7 -6 -6 -6 -6 -6 -6 -6 -6 -6 -6 -6 -6 -6 -6 -6 -6 -6 -5 -6 -6 -5 -6 -5 -5 -5 -5 -5 -6 -6 -6 -6 -7 -7 -7 -6
-8 -8 -7 -8 -8 -8 -7 -7 -7 -6 -6 -6 -6 -6 -6 -6 -6 -6 -6 -6 -6 -6 -6 -6 -6 -6 -6 -6 -6 -6 -6 -6 -6 -6 -6 -6 -6 -7 -7 -7 -7 -7 -7
-8 -8 -8 -8 -8 -8 -8 -7 -7 -7 -7 -6 -6 -6 -6 -6 -6 -6 -6 -6 -6 -6 -6 -6 -6 -6 -6 -6 -6 -6 -6 -6 -6 -6 -6 -6 -7 -7 -7 -7 -7 -7 -7
-9 -9 -8 -8 -8 -8 -8 -7 -7 -7 -7 -7 -7 -6 -6 -6 -6 -6 -6 -6 -6 -6 -6 -6 -6 -6 -6 -6 -6 -6 -6 -6 -6 -7 -7 -7 -7 -7 -7 -7 -7 -7 -8
-9 -9 -9 -9 -9 -8 -8 -8 -7 -7 -7 -7 -7 -7 -6 -6 -6 -6 -6 -6 -6 -6 -6 -6 -6 -6 -6 -6 -6 -7 -6 -7 -7 -7 -7 -7 -7 -7 -8 -8 -8 -8 -8
-9 -9 -9 -9 -9 -9 -8 -8 -8 -8 -7 -7 -7 -7 -7 -6 -6 -7 -7 -7 -7 -7 -7 -6 -7 -6 -7 -7 -7 -7 -7 -7 -7 -7 -7 -8 -8 -8 -8 -8 -8 -8 -8
-9 -9 -9 -9 -9 -9 -9 -8 -8 -8 -8 -7 -7 -7 -7 -7 -7 -7 -7 -7 -7 -7 -7 -7 -7 -7 -7 -7 -7 -7 -7 -7 -7 -7 -8 -8 -8 -8 -8 -8 -8 -8 -8
-10 -9 -10 -10 -10 -9 -9 -9 -8 -8 -8 -8 -8 -7 -7 -7 -7 -7 -7 -7 -7 -7 -7 -7 -7 -7 -7 -7 -7 -7 -7 -7 -7 -7 -8 -8 -8 -8 -8 -8 -9 -9 -9
-9 -10 -10 -10 -10 -9 -9 -9 -9 -9 -8 -8 -8 -8 -8 -8 -8 -8 -8 -8 -8 -8 -8 -7 -7 -7 -8 -8 -8 -8 -8 -7 -8 -8 -8 -8 -8 -8 -9 -9 -9 -9 -9
-9 -10 -10 -10 -10 -10 -10 -9 -9 -9 -9 -8 -8 -8 -8 -8 -8 -8 -8 -8 -8 -8 -8 -8 -8 -8 -8 -8 -8 -8 -8 -8 -8 -8 -8 -8 -8 -8 -9 -9 -9 -9 -9
-10 -10 -10 -10 -10 -10 -10 -9 -9 -9 -9 -9 -8 -8 -8 -8 -8 -8 -8 -8 -8 -8 -8 -8 -8 -8 -8 -8 -8 -8 -8 -8 -8 -8 -8 -8 -8 -9 -9 -9 -9 -9 -9
-10 -10 -10 -11 -10 -10 -10 -10 -10 -9 -9 -9 -9 -9 -9 -8 -9 -9 -9 -9 -9 -9 -9 -9 -8 -8 -8 -8 -8 -8 -8 -8 -9 -9 -9 -9 -9 -9 -9 -9 -9 -9 -10
-10 -10 -10 -10 -11 -11 -10 -10 -10 -10 -10 -10 -9 -9 -9 -9 -9 -9 -9 -9 -9 -9 -9 -9 -9 -9 -9 -9 -9 -9 -9 -9 -9 -9 -9 -9 -9 -9 -9 -9 -10 -10 -10
-10 -10 -10 -11 -11 -11 -11 -11 -10 -10 -10 -10 -10 -10 -9 -9 -9 -9 -9 -9 -9 -9 -9 -9 -9 -9 -9 -9 -9 -9 -9 -9 -9 -9 -9 -9 -10 -10 -10 -10 -10 -10 -10
-10 -10 -10 -10 -11 -11 -11 -11 -11 -11 -11 -11 -10 -10 -10 -10 -10 -9 -10 -10 -9 -10 -10 -10 -10 -10 -10 -10 -10 -10 -10 -10 -10 -10 -10 -10 -10 -10 -10 -11 -11 -10 -10
-11 -10 -10 -11 -11 -10 -11 -11 -11 -11 -11 -11 -11 -11 -10 -10 -10 -10 -10 -10 -10 -10 -10 -10 -10 -10 -10 -10 -10 -10 -10 -10 -10 -10 -10 -10 -10 -11 -11 -11 -11 -11 -11
-12 -11 -10 -10 -11 -11 -11 -11 -11 -11 -11 -11 -11 -11 -11 -11 -11 -11 -11 -11 -11 -11 -11 -11 -11 -11 -11 -10 -11 -11 -11 -11 -11 -11 -11 -11 -11 -11 -11 -11 -11 -12 -12
-11 -11 -12 -12 -12 -12 -12 -12 -12 -11 -11 -11 -11 -11 -11 -11 -12 -11 -11 -11 -11 -11 -11 -11 -11 -11 -11 -11 -11 -11 -11 -11 -12 -11 -11 -11 -12 -12 -12 -11 -12 -12 -12
-11 -11 -11 -11 -10 -10 -11 -11 -12 -12 -12 -12 -12 -12 -12 -13 -12 -12 -12 -12 -12 -11 -11 -11 -11 -11 -11 -11 -12 -11 -11 -11 -11 -12 -12 -12 -12 -12 -12 -12 -12 -12 -13
-11 -9 -9 -9 -10 -11 -11 -11 -13 -13 -12 -12 -12 -12 -12 -12 -12 -12 -13 -12 -12 -12 -12 -11 -11 -11 -11 -11 -11 -11 -12 -11 -11 -11 -12 -12 -12 -12 -12 -12 -12 -12 -12
-11 -11 -10 -10 -11 -11 -11 -11 -12 -12 -11 -12 -11 -12 -12 -12 -12 -12 -13 -13 -13 -12 -12 -12 -12 -12 -11 -11 -11 -12 -12 -12 -12 -12 -12 -12 -13 -12 -13 -13 -13 -13 -13
-12 -11 -11 -10 -10 -11 -10 -11 -11 -10 -12 -12 -12 -12 -12 -12 -12 -12 -13 -12 -12 -12 -12 -12 -12 -12 -12 -12 -12 -11 -12 -12 -12 -12 -12 -12 -12 -13 -12 -13 -13 -13 -13
-12 -12 -11 -11 -10 -9 -11 -11 -11 -12 -11 -11 -11 -12 -12 -12 -13 -12 -13 -12 -12 -11 -12 -12 -11 -12 -12 -12 -12 -12 -12 -12 -12 -12 -13 -13 -13 -12 -12 -13 -12 -13 -13
-13 -12 -12 -12 -11 -11 -11 -11 -12 -12 -12 -12 -12 -13 -12 -12 -13 -13 -12 -12 -12 -11 -13 -13 -13 -13 -13 -13 -13 -13 -13 -13 -13 -13 -12 -13 -13 -13 -13 -13 -13 -13 -13
Height
5866 5868 5869 5871 5873 5876 5879 5881 5881 5882 5883 5884 5886 5887 5888 5888 5889 5890 5890 5890 5890 5891 5890 5890 5890 5889 5889 5888 5888 5888 5887 5887 5887 5887 5887 5887 5886 5885 5884 5883 5882 5881 5879
5859 5863 5867 5868 5871 5874 5877 5879 5880 5880 5882 5883 5885 5886 5887 5888 5889 5890 5890 5890 5890 5890 5890 5890 5889 5889 5889 5888 5888 5888 5888 5888 5888 5888 5888 5887 5886 5886 5884 5883 5882 5880 5878
5858 5862 5864 5867 5869 5872 5875 5877 5879 5880 5881 5882 5884 5886 5887 5888 5889 5889 5890 5890 5890 5890 5890 5890 5889 5889 5889 5889 5889 5888 5888 5888 5889 5889 5888 5887 5886 5886 5885 5884 5882 5880 5879
5856 5859 5862 5865 5867 5870 5872 5875 5877 5879 5880 5881 5883 5885 5886 5888 5888 5888 5889 5889 5890 5889 5889 5889 5889 5889 5889 5889 5889 5889 5889 5889 5889 5889 5888 5888 5887 5886 5885 5884 5883 5881 5878
5852 5856 5859 5863 5865 5868 5871 5873 5874 5877 5878 5880 5882 5884 5885 5886 5887 5888 5888 5889 5889 5889 5889 5889 5889 5889 5889 5889 5889 5889 5889 5890 5889 5889 5888 5888 5887 5886 5885 5884 5882 5881 5879
5847 5851 5855 5859 5862 5865 5867 5870 5872 5874 5876 5879 5881 5882 5884 5885 5886 5887 5888 5888 5889 5889 5888 5889 5889 5889 5889 5889 5889 5889 5890 5890 5890 5889 5888 5888 5887 5886 5885 5883 5882 5880 5878
5843 5847 5851 5855 5858 5862 5864 5867 5870 5872 5873 5876 5879 5881 5882 5883 5884 5886 5887 5887 5888 5888 5888 5888 5888 5888 5888 5889 5889 5889 5889 5889 5889 5888 5888 5888 5886 5885 5884 5883 5881 5880 5878
5837 5842 5846 5851 5855 5858 5862 5864 5867 5870 5871 5874 5876 5879 5880 5881 5882 5884 5885 5886 5886 5887 5887 5887 5887 5888 5888 5888 5888 5889 5888 5888 5888 5888 5887 5887 5886 5884 5883 5882 5880 5878 5877
5831 5836 5842 5847 5850 5854 5858 5861 5864 5867 5869 5871 5873 5877 5877 5878 5879 5882 5883 5884 5885 5885 5886 5886 5886 5887 5887 5888 5888 5888 5888 5888 5888 5888 5887 5885 5885 5883 5882 5880 5879 5877 5875
5825 5832 5837 5842 5847 5850 5854 5858 5861 5864 5866 5870 5871 5874 5875 5876 5878 5880 5881 5883 5883 5884 5884 5885 5886 5886 5886 5887 5887 5887 5887 5887 5887 5886 5886 5885 5883 5882 5881 5879 5877 5875 5873
5818 5825 5832 5837 5842 5846 5851 5854 5858 5861 5864 5866 5869 5872 5873 5875 5875 5877 5879 5881 5881 5882 5883 5883 5884 5885 5885 5885 5886 5886 5885 5885 5884 5884 5884 5883 5882 5881 5879 5877 5875 5873 5871
5813 5819 5826 5832 5837 5842 5847 5851 5854 5857 5861 5863 5867 5869 5871 5873 5873 5875 5877 5878 5879 5880 5881 5881 5881 5882 5883 5883 5884 5883 5883 5883 5883 5882 5882 5881 5880 5879 5877 5875 5873 5870 5868
5806 5813 5820 5826 5832 5837 5842 5847 5850 5853 5857 5860 5864 5866 5868 5871 5871 5873 5875 5876 5877 5877 5878 5879 5879 5880 5880 5881 5882 5882 5881 5881 5881 5880 5879 5879 5878 5876 5875 5873 5870 5868 5866
5799 5806 5814 5820 5826 5832 5838 5842 5846 5849 5853 5856 5860 5863 5866 5868 5869 5870 5872 5873 5874 5875 5876 5877 5877 5878 5878 5878 5878 5879 5879 5878 5877 5877 5876 5875 5874 5873 5872 5870 5868 5866 5863
5789 5797 5804 5812 5820 5828 5834 5838 5841 5846 5850 5853 5856 5860 5862 5864 5865 5867 5868 5870 5870 5871 5873 5874 5875 5876 5876 5876 5876 5875 5875 5875 5875 5874 5873 5872 5871 5869 5867 5865 5864 5862 5860
5789 5794 5799 5804 5811 5822 5829 5832 5836 5841 5845 5849 5852 5855 5858 5860 5861 5863 5864 5865 5867 5868 5869 5870 5871 5872 5872 5872 5872 5872 5871 5871 5871 5870 5870 5868 5867 5866 5864 5862 5859 5858 5856
5786 5791 5793 5800 5808 5815 5823 5827 5832 5837 5841 5844 5848 5850 5854 5855 5857 5859 5860 5861 5863 5864 5865 5866 5866 5867 5867 5868 5868 5868 5868 5867 5866 5866 5866 5864 5863 5861 5859 5857 5854 5852 5851
5778 5785 5794 5799 5806 5811 5818 5823 5828 5832 5836 5839 5843 5846 5849 5851 5853 5854 5856 5857 5857 5859 5860 5861 5861 5863 5863 5863 5863 5863 5863 5862 5861 5860 5859 5859 5857 5855 5854 5853 5851 5848 5845
5774 5781 5790 5797 5800 5806 5813 5819 5823 5826 5830 5833 5837 5841 5843 5846 5847 5848 5850 5852 5853 5855 5857 5857 5857 5858 5858 5858 5858 5857 5857 5856 5855 5853 5853 5852 5850 5849 5847 5847 5845 5843 5840
5769 5778 5783 5792 5794 5803 5807 5811 5815 5820 5824 5829 5833 5835 5838 5840 5842 5844 5846 5848 5849 5850 5852 5852 5852 5852 5852 5852 5852 5850 5849 5848 5847 5846 5845 5844 5843 5842 5840 5839 5838 5837 5834
5760 5771 5783 5785 5790 5794 5800 5806 5809 5814 5819 5823 5827 5830 5833 5836 5838 5839 5841 5842 5844 5845 5845 5846 5846 5846 5846 5845 5845 5844 5843 5842 5839 5837 5836 5837 5836 5835 5833 5832 5831 5830 5827
5756 5766 5771 5756 5781 5788 5793 5798 5803 5808 5812 5815 5819 5823 5827 5830 5832 5833 5835 5837 5838 5838 5838 5838 5838 5838 5839 5838 5837 5837 5835 5833 5832 5831 5830 5829 5828 5826 5825 5825 5823 5822 5820
5752 5761 5769 5760 5764 5777 5784 5788 5793 5796 5800 5807 5811 5817 5821 5822 5825 5826 5829 5830 5831 5831 5832 5832 5831 5831 5830 5829 5828 5829 5827 5823 5822 5823 5823 5822 5821 5820 5818 5817 5816 5815 5813
5746 5754 5760 5767 5767 5776 5775 5780 5788 5790 5796 5800 5804 5809 5813 5814 5818 5819 5823 5825 5825 5825 5825 5825 5824 5824 5822 5822 5822 5820 5819 5818 5816 5817 5817 5816 5815 5813 5811 5809 5808 5807 5805
5738 5745 5752 5761 5768 5754 5770 5779 5786 5791 5793 5797 5795 5802 5805 5809 5814 5815 5816 5816 5816 5814 5813 5815 5812 5813 5813 5814 5814 5812 5812 5812 5809 5808 5809 5808 5807 5805 5803 5801 5799 5798 5795
5737 5744 5748 5754 5758 5765 5769 5773 5777 5781 5785 5784 5792 5795 5799 5803 5805 5805 5805 5804 5803 5802 5803 5808 5807 5805 5806 5805 5805 5804 5804 5805 5803 5801 5800 5799 5799 5797 5795 5791 5790 5788 5786
Wind_Speed
23 21 19 16 15 16 15 12 9 8 6 5 3 3 3 1 1 1 1 2 3 5 5 6 7 7 6 5 4 4 4 4 5 5 5 7 8 9 10 11 12 14 16
29 25 22 20 19 18 16 13 11 8 5 4 3 3 3 2 3 2 2 2 3 5 6 6 7 7 6 5 4 3 3 5 5 5 6 7 8 9 10 11 12 14 16
29 27 24 22 21 20 19 15 13 11 8 5 3 3 4 4 4 4 4 2 3 5 6 7 7 6 5 4 3 3 3 4 5 5 6 7 9 9 10 12 14 15 17
30 27 27 25 23 22 20 18 16 13 12 8 5 5 5 5 5 5 5 3 4 4 6 7 7 6 4 3 2 3 3 4 4 5 7 8 8 9 10 12 14 16 16
33 31 28 26 24 22 21 19 18 15 14 12 9 8 6 6 7 7 6 5 4 5 5 6 6 4 2 1 1 2 3 3 4 6 7 8 8 8 10 12 14 15 16
33 32 30 27 25 24 22 21 19 17 15 14 12 10 9 8 8 8 7 6 5 5 4 5 5 3 1 0 0 1 1 2 5 6 7 7 8 9 11 12 14 16 17
36 34 31 27 26 24 23 21 19 17 16 15 13 12 11 10 9 9 8 6 6 5 5 5 5 3 2 2 1 2 1 2 4 5 7 8 8 10 11 13 15 17 17
40 36 32 29 27 25 23 21 19 19 16 16 14 14 12 11 11 10 8 7 6 6 6 5 5 4 3 3 3 3 3 3 4 5 6 9 10 10 12 14 15 17 19
42 37 38 32 30 27 24 23 21 19 17 16 15 15 13 13 12 11 9 8 6 6 6 5 6 5 5 5 5 5 5 6 6 8 8 9 10 12 13 15 16 17 18
41 41 37 35 31 28 26 24 22 20 19 17 16 16 15 14 12 11 10 9 7 7 7 7 7 6 7 7 6 7 7 8 9 10 11 11 11 13 15 16 17 18 18
45 44 43 39 34 30 27 25 23 21 19 19 16 16 15 14 12 11 11 10 8 8 8 7 7 7 7 8 8 9 9 10 10 11 12 13 14 15 16 17 18 20 20
44 45 46 42 38 33 29 27 25 21 20 17 17 17 15 15 14 13 12 11 10 10 9 9 9 9 9 10 10 11 12 12 12 13 14 15 16 17 19 19 20 21 21
47 50 48 44 40 36 32 29 26 22 20 18 17 17 16 17 15 15 14 14 13 13 12 12 11 11 11 12 12 13 14 14 14 15 16 17 18 19 21 22 22 23 23
54 51 49 49 42 38 34 30 25 22 20 19 18 17 17 18 16 16 16 16 16 15 15 14 14 13 14 14 14 14 15 16 16 17 17 18 18 20 22 24 25 25 26
39 56 64 53 44 37 32 28 23 21 19 19 19 20 19 18 17 17 17 18 18 17 16 16 16 16 16 17 18 18 18 18 18 18 18 19 19 21 23 26 26 27 27
57 42 55 57 48 38 31 28 24 22 20 19 19 21 21 21 20 19 19 20 20 20 19 18 19 19 19 19 20 20 20 21 21 20 20 21 22 23 25 27 28 29 28
44 35 52 51 39 35 31 28 26 23 20 20 20 20 22 22 23 22 22 22 22 22 22 22 22 23 22 21 21 21 23 24 24 24 24 24 25 26 27 28 30 31 30
54 54 36 40 38 38 34 30 26 23 23 22 23 23 23 23 24 24 24 24 24 24 24 23 23 23 25 26 26 26 26 27 29 29 27 27 27 28 29 29 28 30 33
54 50 47 37 40 36 34 31 27 25 25 24 23 23 24 25 26 25 24 23 23 22 22 23 23 24 26 27 28 28 30 32 32 33 31 29 31 30 28 30 29 29 33
58 53 49 56 44 35 29 27 30 30 28 26 24 25 26 25 24 24 24 23 23 22 22 22 24 25 26 27 28 30 33 36 39 39 33 32 35 35 36 37 35 32 34
43 39 40 43 47 47 38 29 35 28 28 26 26 27 25 25 25 24 23 24 23 24 25 27 27 27 28 28 30 32 36 40 37 36 37 35 38 41 40 43 41 43 41
49 46 48 43 50 49 40 41 38 33 32 30 28 31 28 25 27 26 26 25 26 26 28 31 30 30 33 33 35 36 41 43 37 32 31 34 34 32 31 36 35 36 38
49 52 46 38 40 41 43 44 48 44 42 37 34 34 31 32 31 27 24 27 30 31 32 33 33 35 36 35 34 36 39 28 27 23 26 30 29 34 30 35 35 36 37
39 51 49 50 37 36 39 43 44 36 46 37 37 37 38 38 35 32 35 31 30 34 35 36 35 34 32 30 37 35 31 22 19 24 27 28 30 30 32 33 38 41 43
50 39 39 42 40 31 47 39 44 26 27 33 33 31 20 31 20 24 23 27 31 33 38 33 28 32 35 33 35 21 25 36 29 27 29 29 32 33 34 39 38 41 46
51 49 43 45 49 47 36 31 31 30 31 26 27 23 24 25 25 25 29 29 39 30 33 35 41 42 45 43 48 46 44 41 36 34 37 36 36 32 37 33 34 35 33
Wind_Direction
221 222 218 215 217 211 210 202 195 195 184 178 195 214 203 193 232 250 358 5 9 3 1 358 352 351 351 2 6 29 41 53 56 58 48 31 23 25 15 7 9 10 10
214 208 214 211 213 211 211 204 203 204 192 192 215 234 249 219 234 263 288 323 343 351 348 350 351 348 347 357 6 29 42 60 55 45 33 27 24 14 8 8 8 11 9
215 216 210 211 211 211 211 209 208 208 205 200 210 244 259 252 243 246 255 282 326 337 338 345 345 346 343 355 7 42 52 47 34 26 26 23 9 8 8 4 7 9 6
218 216 216 211 210 212 212 212 215 214 214 212 213 234 251 263 253 245 259 272 302 319 333 338 343 341 346 2 20 52 37 24 28 18 9 2 3 4 4 6 7 6 2
219 212 212 215 213 213 216 216 218 217 214 218 218 228 241 250 257 250 250 260 284 306 330 328 334 330 338 34 35 42 32 28 9 359 356 359 356 2 1 359 2 2 360
209 208 210 211 215 216 217 220 222 217 217 218 220 225 235 244 247 250 248 258 277 297 309 317 319 311 297 167 177 86 59 3 345 349 349 349 351 350 354 356 358 358 359
212 213 213 212 214 218 218 216 219 220 212 217 219 224 228 236 240 245 247 255 265 286 294 305 302 287 254 216 200 184 241 322 329 342 337 336 340 343 348 351 355 354 352
213 209 211 214 215 217 221 217 214 215 211 212 215 222 224 228 233 240 242 249 267 285 294 299 285 269 244 225 220 233 265 293 318 321 318 320 325 335 343 347 348 348 348
208 212 215 213 214 215 216 216 215 214 210 211 212 222 224 225 225 233 238 247 262 275 282 283 274 261 248 240 238 252 270 288 303 309 308 308 315 326 333 337 339 339 342
210 216 209 210 212 213 214 215 213 211 209 212 211 220 222 222 223 228 237 248 260 278 286 283 274 264 254 250 250 260 277 288 295 299 304 308 315 321 327 328 329 330 333
212 216 212 209 209 212 213 212 211 208 209 212 215 221 224 224 223 229 237 246 254 267 276 280 276 268 261 263 264 270 273 279 286 292 299 307 314 320 324 323 323 322 326
209 213 208 211 210 210 212 211 209 208 210 208 218 224 228 230 226 231 237 242 251 257 263 269 272 269 259 256 262 268 274 279 285 292 300 306 309 314 317 318 318 316 320
206 210 209 208 209 207 208 208 208 207 212 211 218 225 229 236 234 235 239 242 246 250 254 257 263 269 271 269 270 274 280 286 291 297 299 302 305 309 312 314 315 315 315
205 213 204 203 203 204 203 203 205 208 213 216 223 228 231 237 241 242 245 247 250 254 258 261 264 269 272 274 275 277 281 285 288 290 293 297 303 306 308 309 313 314 313
205 210 217 210 197 198 199 200 201 207 214 218 222 230 236 240 243 248 250 252 254 256 259 263 267 269 274 277 279 279 279 280 284 287 292 297 301 301 302 304 309 311 310
209 223 217 194 188 191 197 200 202 208 215 221 226 231 235 240 243 245 248 251 253 255 256 258 263 266 267 269 272 276 279 281 283 288 292 295 297 299 300 302 306 310 306
221 193 198 195 188 187 197 200 204 211 219 225 231 235 239 241 244 246 248 251 254 256 258 260 262 266 268 270 275 279 282 285 289 291 292 291 292 295 297 301 303 304 304
225 220 198 191 199 196 202 204 208 216 224 229 233 235 240 245 248 250 251 252 254 257 260 263 266 271 276 279 280 283 286 287 288 287 287 289 292 291 295 298 299 300 302
225 230 224 204 196 191 195 205 214 221 225 229 231 235 238 242 245 248 253 257 262 266 269 273 276 279 280 282 286 289 289 288 286 285 285 288 285 289 294 296 295 295 296
223 224 230 225 232 209 209 224 221 221 226 232 235 236 240 240 246 254 258 264 269 275 281 285 286 286 288 290 290 290 291 294 291 284 280 283 288 289 290 289 294 295 294
197 206 219 224 237 233 220 221 214 222 230 231 232 234 231 245 245 250 259 266 271 279 283 283 285 289 289 291 293 287 299 290 289 289 280 282 284 287 289 293 292 296 295
216 204 193 213 218 213 215 218 222 228 233 226 222 228 231 248 251 250 260 267 273 276 277 278 280 282 284 288 289 286 294 291 286 281 281 278 280 287 292 294 289 292 294
219 219 213 223 207 220 211 220 223 225 225 221 226 227 236 241 240 242 258 261 268 274 277 278 282 283 280 280 285 289 292 281 275 267 269 271 284 287 280 283 285 294 294
212 220 219 226 220 214 222 224 222 224 230 227 235 247 235 241 250 265 255 269 277 280 275 276 277 278 273 280 290 285 274 273 280 267 280 282 290 295 282 276 283 291 296
227 215 221 209 205 217 210 225 226 232 221 236 232 234 253 247 265 274 268 267 273 273 269 269 264 267 285 278 273 288 287 292 270 279 290 283 287 290 283 289 284 284 288
227 231 229 223 212 218 223 232 243 234 242 254 248 242 252 269 261 264 263 272 256 256 291 300 299 298 296 297 295 294 289 296 294 293 289 287 294 288 285 288 290 290 292